Theta_e
309 308 306 305 305 306 306 304 302 301 301 302 302 302 303 305 311 315 318 317 313 308 306 312 314 314 316 319 321 322 326 328 329 328 329 328 329 327 326 326 328 327 328 329 327
308 308 309 308 306 305 306 306 305 302 301 302 302 302 304 308 312 320 317 310 308 305 308 311 312 315 317 318 320 323 324 325 326 328 328 327 329 328 327 326 327 328 327 328 327
309 309 309 309 308 306 305 306 307 305 302 302 302 302 304 311 320 316 311 310 309 306 314 312 312 314 317 319 320 322 323 324 324 324 325 327 327 328 329 328 326 326 327 327 326
306 308 309 310 309 307 305 306 307 306 302 301 302 302 304 310 324 318 311 311 312 315 313 312 312 314 317 320 320 322 322 323 323 322 323 325 326 327 328 328 327 325 326 325 325
306 306 308 310 310 306 306 306 305 303 301 301 301 303 304 318 318 316 311 310 314 315 315 313 313 314 316 318 319 320 321 321 321 321 321 322 325 326 327 327 327 325 323 325 325
303 305 307 309 310 306 306 304 303 302 302 301 301 304 309 316 316 317 315 315 315 314 315 315 316 315 315 317 318 317 318 318 319 320 319 321 323 323 324 325 326 323 322 324 327
307 306 307 310 308 306 304 304 302 302 302 301 302 305 314 314 313 316 315 315 314 314 314 315 314 314 315 316 316 316 317 318 318 319 320 319 320 321 320 320 322 322 321 323 326
309 309 309 311 307 307 310 310 310 310 302 301 306 313 316 311 311 313 314 315 314 314 314 314 313 314 315 315 316 317 317 317 318 319 318 318 319 320 319 319 320 320 321 322 325
310 310 310 308 308 310 310 311 312 310 304 305 312 317 317 312 310 312 313 313 313 313 313 313 312 314 315 316 316 317 316 317 318 319 319 319 319 320 319 319 320 320 320 321 324
309 310 311 307 311 311 310 310 311 311 311 311 316 317 316 314 313 314 313 313 312 312 313 313 314 316 316 316 317 317 318 318 318 319 318 318 318 319 319 319 319 319 319 319 323
309 311 311 308 311 312 312 316 318 320 318 318 317 317 316 315 315 314 313 312 313 313 315 315 316 316 317 317 317 316 317 319 319 318 318 318 319 319 319 319 319 318 318 318 320
310 311 309 309 311 312 315 316 315 314 316 316 314 314 314 314 315 314 313 313 314 315 316 316 316 316 315 316 316 316 317 317 317 317 317 318 318 318 319 319 318 318 318 318 318
308 311 307 310 312 314 315 314 314 315 317 317 314 314 313 314 314 315 314 314 315 315 316 316 316 315 315 315 315 315 316 317 317 318 318 317 318 318 318 318 317 317 317 317 317
306 308 306 311 315 314 317 314 313 315 320 320 315 315 313 314 315 314 314 313 315 315 316 316 316 315 314 314 315 316 316 316 316 317 318 318 318 319 318 318 317 317 317 317 317
310 308 309 311 316 316 315 314 313 316 328 318 316 315 314 315 315 315 314 314 315 316 317 316 316 315 314 314 315 315 316 316 317 317 317 317 317 317 318 318 317 317 317 318 319
311 310 310 315 315 314 313 313 316 324 326 318 316 315 315 315 315 315 314 313 314 316 316 316 316 316 315 315 315 315 315 316 316 316 316 317 317 317 318 318 318 317 316 316 316
302 311 312 310 315 315 315 315 322 324 319 317 316 316 316 316 316 317 316 317 317 317 317 317 317 316 316 315 315 315 315 316 317 317 318 318 317 317 317 317 317 318 315 314 315
305 304 313 314 315 315 315 319 322 319 318 317 315 316 316 316 317 317 317 318 317 317 318 317 317 317 318 315 315 316 317 316 320 320 319 317 317 317 316 316 315 314 314 315 316
305 312 316 318 314 314 317 320 321 320 316 316 315 316 317 317 316 316 317 317 317 316 319 321 317 316 316 316 316 316 317 317 318 318 318 318 319 318 316 315 315 314 315 317 316
307 316 317 316 313 315 319 319 318 317 316 315 315 316 317 317 316 316 316 316 316 315 317 317 317 316 316 316 316 316 316 318 318 317 317 317 317 317 317 317 315 316 316 316 316
315 316 318 313 313 314 318 318 316 314 313 315 315 316 316 316 316 316 315 315 315 315 316 316 318 317 315 317 317 316 315 317 317 321 322 320 318 317 317 316 317 316 316 316 316
314 317 316 311 316 317 316 314 311 311 310 312 312 314 316 315 315 315 314 314 313 314 314 315 317 318 315 315 316 316 317 319 321 320 319 318 317 316 316 317 317 316 316 316 316
312 313 314 309 318 316 313 312 310 310 311 313 314 314 314 315 315 314 313 313 313 313 313 316 317 318 316 316 317 317 316 316 316 318 320 321 320 317 317 317 316 316 316 316 316
310 315 313 311 311 312 312 312 311 309 310 311 312 312 313 313 313 313 313 312 312 312 312 312 315 315 316 315 315 315 316 315 315 320 317 317 316 316 317 317 317 316 316 316 316
311 313 311 313 313 312 311 311 311 310 310 310 311 311 312 312 312 312 312 311 311 311 311 312 313 313 313 313 312 312 312 313 315 316 316 315 315 316 316 317 316 315 315 316 315
307 309 309 309 311 312 311 311 310 309 309 309 309 309 310 311 311 311 310 311 311 312 311 312 315 313 314 313 313 314 313 313 313 313 314 314 314 314 314 314 315 315 317 317 316
304 304 306 311 313 312 312 309 308 307 306 307 307 308 310 310 308 308 308 309 310 311 311 313 314 314 316 313 314 314 313 313 313 314 313 313 313 315 314 315 317 316 317 316 315
Wind_Speed
15 14 13 12 12 11 10 9 8 8 8 7 7 8 10 10 8 10 7 11 9 13 14 6 10 14 18 24 26 24 18 21 27 25 19 18 14 16 12 14 12 13 10 5 6
15 14 14 13 13 12 12 10 9 8 8 7 7 8 9 7 7 9 9 11 7 5 6 12 15 15 21 23 28 23 17 28 25 22 22 23 24 16 12 16 21 22 16 10 7
16 16 15 15 14 13 12 12 11 9 8 7 6 7 7 6 9 6 1 3 1 4 3 8 13 17 22 25 27 26 25 23 24 30 32 26 25 19 19 14 17 27 25 12 13
16 16 15 15 14 14 12 12 12 10 8 6 5 5 4 4 2 4 2 5 5 3 4 7 11 16 19 20 25 25 30 27 27 33 29 24 25 25 24 24 16 12 22 22 16
17 16 15 13 13 13 12 12 11 9 8 7 5 4 2 7 9 6 3 4 3 1 4 6 11 15 18 18 23 22 23 27 28 27 30 27 25 27 32 27 22 19 21 27 17
17 15 14 11 11 11 11 10 9 7 6 6 4 3 3 13 3 5 5 3 2 3 3 4 5 8 14 16 18 19 22 24 29 26 23 26 25 28 34 29 27 16 24 29 31
17 14 11 11 10 9 6 6 6 6 4 3 3 4 10 11 5 7 7 5 5 5 6 5 6 8 6 11 18 19 20 18 21 25 22 22 25 29 32 31 32 26 25 26 27
17 12 10 8 7 5 6 5 4 3 2 2 2 2 9 5 8 9 8 8 7 6 7 7 8 12 15 15 9 14 18 20 21 22 25 22 27 25 33 33 38 22 26 24 25
16 11 7 6 3 4 4 6 5 1 1 1 1 4 10 6 10 11 10 10 9 8 9 10 10 15 15 12 15 17 16 20 21 22 16 21 27 22 21 14 14 22 16 22 21
15 10 5 2 3 5 3 4 4 2 2 2 7 7 10 8 10 8 10 10 9 9 10 12 15 13 14 13 15 16 18 17 17 10 14 20 24 18 21 16 18 18 20 21 19
14 9 4 1 2 5 4 6 3 4 9 12 2 12 5 6 8 11 12 10 11 13 14 18 11 14 17 17 16 19 15 19 16 9 7 12 17 19 20 22 20 21 23 22 20
16 8 2 2 2 5 8 5 5 8 11 10 11 12 11 6 9 14 13 13 14 14 16 12 15 17 18 13 13 16 19 19 17 14 10 16 19 19 20 18 24 23 25 24 22
16 9 2 3 2 3 3 4 8 8 8 9 7 8 11 13 14 12 17 16 16 15 16 16 16 11 12 12 16 18 18 17 17 12 12 14 22 22 21 28 28 29 28 23 22
16 9 3 3 2 2 2 8 10 5 6 13 10 7 9 12 14 15 13 16 14 18 16 15 13 10 12 16 17 17 17 16 16 12 14 15 13 14 5 10 12 18 15 14 17
13 8 2 3 5 6 6 9 5 3 5 6 8 4 6 15 5 15 11 14 17 17 13 16 11 11 14 18 13 14 15 12 11 16 17 20 13 14 20 19 13 12 16 14 10
12 7 4 6 5 6 9 7 3 7 5 6 5 7 13 16 15 13 11 15 18 18 19 23 23 14 15 12 12 13 18 14 16 14 17 21 19 17 14 14 14 14 12 12 9
14 10 7 4 6 9 7 4 6 6 3 3 4 7 12 12 12 14 15 18 17 18 20 21 23 24 22 18 16 14 12 13 16 15 17 18 11 12 4 2 12 18 14 9 11
16 10 9 5 7 8 4 8 8 7 5 4 10 14 15 15 17 15 17 16 20 22 18 18 19 16 16 19 18 13 15 11 12 13 13 4 8 9 9 14 7 4 9 8 10
16 3 5 5 6 6 10 8 12 10 5 9 14 18 16 8 4 14 12 17 19 16 8 15 18 5 10 16 16 20 18 16 19 21 18 14 21 8 12 8 7 12 12 12 8
7 4 4 8 4 5 10 13 13 1 8 11 15 11 15 14 12 13 14 11 9 11 9 14 15 18 4 10 16 20 5 10 11 18 19 17 20 14 19 17 13 10 10 13 7
6 7 3 4 5 10 9 13 10 10 9 7 12 17 18 19 19 20 20 17 2 15 7 12 9 14 6 11 17 15 18 14 13 7 6 13 8 9 10 12 15 6 5 8 14
6 4 0 3 9 4 8 6 8 13 13 13 13 16 16 15 17 17 19 15 3 15 13 7 6 10 17 15 14 14 14 17 5 13 15 15 17 8 4 8 6 7 9 18 15
11 9 2 3 5 7 13 12 13 13 12 6 10 12 14 15 17 16 16 8 10 8 9 7 6 9 13 11 9 15 15 17 18 18 22 16 15 2 11 15 10 16 18 15 14
8 5 1 3 4 6 11 13 6 5 11 13 11 16 15 15 14 18 16 3 7 9 8 1 13 16 14 21 6 5 14 15 11 12 19 21 25 9 9 13 20 19 20 16 17
4 5 4 6 8 11 11 13 14 11 6 10 8 10 11 13 14 15 15 13 9 9 9 9 17 18 19 21 22 22 20 20 19 22 19 19 21 17 21 21 23 23 22 22 22
7 7 7 21 15 10 9 9 12 11 10 13 14 14 14 13 13 16 19 16 16 14 14 13 18 19 22 22 22 22 21 22 23 26 25 26 27 23 27 31 26 20 22 15 16
7 7 7 12 10 10 8 10 10 12 9 12 10 13 15 13 16 18 18 18 15 13 10 11 8 8 15 16 12 16 19 19 21 24 21 22 22 17 21 20 19 9 13 17 21
Wind_Direction
341 340 338 330 325 321 319 315 309 301 297 299 305 316 322 317 308 310 285 258 240 262 233 222 239 232 227 233 231 231 244 246 244 247 256 249 200 210 236 248 256 246 270 308 330
334 331 330 328 323 318 312 305 300 291 287 292 302 321 326 321 301 279 251 274 266 240 206 226 232 224 224 225 228 226 235 243 253 256 252 254 251 193 192 229 241 261 242 238 295
334 329 324 321 319 315 309 302 295 286 277 282 295 316 322 314 294 125 341 64 65 159 232 229 234 229 235 229 225 219 241 254 252 252 262 265 252 244 218 203 237 233 245 313 302
337 331 322 318 318 315 309 302 295 284 265 260 271 301 309 288 313 168 109 77 66 144 247 238 232 228 240 235 228 240 242 252 260 266 266 262 268 263 243 227 225 239 249 245 291
334 329 322 318 319 316 310 306 298 286 265 248 246 277 252 241 256 211 159 95 82 54 252 235 244 237 243 245 247 237 252 251 258 257 266 269 250 255 258 253 237 248 261 243 251
331 326 322 315 315 315 314 310 302 291 277 259 245 255 258 256 158 189 171 196 206 247 259 258 286 283 282 271 255 260 250 263 258 252 253 257 257 259 256 260 252 243 252 249 238
335 326 321 316 320 320 325 325 312 299 277 246 244 265 267 247 206 200 201 218 243 242 249 254 275 261 298 272 254 256 267 261 258 256 244 251 253 248 254 257 251 238 244 246 245
337 331 323 320 329 343 345 339 310 293 278 218 225 257 260 223 215 212 217 234 239 236 247 264 263 271 274 272 262 258 249 255 245 235 241 240 254 247 247 245 241 249 250 244 247
344 336 330 332 1 5 25 19 10 337 168 180 338 218 266 237 212 218 224 233 218 244 250 258 258 257 263 245 254 234 252 246 246 246 233 225 246 252 246 241 250 247 248 256 239
356 343 335 4 48 24 9 1 6 6 208 257 252 241 241 233 190 209 212 221 232 245 246 240 245 244 235 246 251 252 235 229 254 205 207 252 256 253 253 218 232 238 239 244 235
8 359 341 91 69 26 358 332 266 199 234 260 308 258 273 222 221 215 207 219 241 244 251 235 248 246 247 253 257 279 291 284 293 244 255 263 271 261 234 207 227 239 243 241 230
6 16 21 122 76 58 35 332 9 320 295 242 253 253 243 233 231 221 209 231 221 243 245 232 247 254 270 276 280 272 264 259 261 256 249 260 263 261 257 249 244 245 236 235 238
6 12 64 133 51 43 13 2 331 316 265 190 227 239 215 210 231 223 213 234 248 247 249 258 279 316 288 261 248 256 258 261 262 261 238 265 266 258 252 250 247 246 243 240 224
5 12 87 121 48 306 250 337 332 297 270 154 207 203 196 210 233 236 231 239 237 254 267 278 284 284 258 250 259 256 253 241 274 272 260 246 274 248 306 215 236 234 229 226 224
356 15 88 283 302 294 294 322 309 297 278 131 143 137 184 213 52 210 220 232 253 271 240 259 261 238 253 252 251 267 285 295 258 258 269 258 260 260 254 217 192 219 209 201 195
326 333 347 340 314 303 318 303 299 234 250 160 182 218 212 217 246 251 209 233 268 276 272 270 260 255 264 264 265 293 275 251 258 255 252 251 248 261 243 215 183 195 195 201 217
327 288 301 300 294 309 312 264 243 252 87 183 263 216 254 269 264 238 247 248 234 251 249 248 251 244 223 241 242 233 256 268 249 229 244 241 234 242 18 150 195 191 191 220 228
327 290 263 271 295 313 292 240 261 296 308 31 289 279 270 276 269 258 252 257 255 258 285 274 280 257 215 230 253 215 248 240 262 278 291 111 232 245 245 177 212 262 250 250 230
338 315 231 249 285 302 270 245 253 349 8 314 310 272 269 238 244 298 263 265 282 295 218 284 294 24 320 252 261 256 218 258 278 269 279 267 258 190 169 189 210 232 218 211 216
355 268 213 252 277 280 258 264 293 12 302 301 288 294 290 303 299 280 279 296 306 293 312 290 286 280 265 278 264 262 216 245 251 253 250 255 266 265 189 190 196 203 206 225 248
9 272 200 272 285 246 254 281 326 313 318 288 290 295 294 298 297 292 290 293 72 292 292 308 287 265 278 243 262 241 231 222 238 211 264 276 260 344 159 186 180 192 238 250 258
309 279 266 318 259 208 268 10 327 291 286 276 275 277 285 296 296 294 293 304 26 305 291 320 286 280 267 258 247 269 213 258 232 256 259 264 259 175 167 251 195 208 244 254 284
314 291 281 327 287 320 316 299 285 280 283 285 281 287 292 292 292 288 294 303 328 294 323 359 262 278 265 262 223 231 234 236 233 244 257 267 265 8 309 196 204 229 259 281 274
310 301 212 242 270 304 321 300 290 279 281 273 281 292 285 279 277 284 273 243 271 280 105 301 275 276 276 296 157 256 289 286 260 271 263 253 262 197 216 291 259 248 267 278 272
313 11 355 306 323 326 300 295 295 290 241 291 285 266 278 288 295 295 290 288 261 227 226 253 266 274 273 285 287 283 268 249 243 271 267 274 273 259 263 236 262 287 281 274 272
326 342 322 287 276 293 288 284 303 302 301 285 294 295 303 287 294 302 307 298 291 288 276 244 254 266 275 278 272 284 268 264 254 250 250 253 258 264 273 278 277 297 287 273 281
327 295 294 290 271 282 308 318 303 310 294 272 283 299 288 300 311 300 296 289 280 278 281 275 277 287 271 271 281 267 257 256 252 255 256 259 263 263 265 277 263 277 281 295 291